Hill City, KS

4:53 PM CDT on March 25, 2017 (GMT -0500)
Hill City Municipal

Weather History for KHLC - August, 2013

Change the Weather History Date:

Monday, August 19, 2013

  Actual Average Record
Temperature  
Mean Temperature 77 °F 76 °F  
Max Temperature 89 °F 90 °F 107 °F (1938)
Min Temperature 65 °F 63 °F 46 °F (1927)
Cooling Degree Days 12    
Growing Degree Days 28 (Base 50)    
Moisture  
Dew Point 64 °F    
Average Humidity 68    
Maximum Humidity 90    
Minimum Humidity 45    
Precipitation  
Precipitation 0.00 in 0.09 in 1.16 in (2011)
Month to date precipitation 0.71 1.79  
Year to date precipitation 12.89 16.76  
Sea Level Pressure  
Sea Level Pressure 29.95 in    
Wind  
Wind Speed 7 mph (South)    
Max Wind Speed 14 mph    
Max Gust Speed 22 mph    
Visibility 10 miles    
Events      
T = Trace of Precipitation, MM = Missing Value Source: NWS Daily Summary

Daily Weather History Graph

Daily Weather History Graph

Search for Another Location

Airport or City:

Trip Planner

Search our weather history database for the weather conditions in past years. The results will help you decide how hot, cold, wet, or windy it might be!

Date:

Astronomy

Aug. 19, 2013 Rise Set
Actual Time 6:56 AM CDT 8:28 PM CDT
Civil Twilight 6:27 AM CDT 8:57 PM CDT
Nautical Twilight 5:53 AM CDT 9:31 PM CDT
Astronomical Twilight 5:17 AM CDT 10:07 PM CDT
Moon 7:21 PM CDT (8/19) 5:17 AM CDT (8/19)
Length of Visible Light 14h 29m
Length of Day
13h 32m
Waxing Gibbous, 97% of the Moon is Illuminated
Aug 19
Waxing Gibbous
Aug 20
Full
Aug 28
Last Quarter
Sep 5
New
Sep 12
First Quarter

Hourly Weather History & Observations

Time (CDT) Temp. Heat Index Dew Point Humidity Pressure Visibility Wind Dir Wind Speed Gust Speed Precip Events Conditions
12:53 AM 69.1 °F - 63.0 °F 81% 30.04 in 10.0 mi South 5.8 mph - N/A   Clear
1:53 AM 68.0 °F - 62.1 °F 81% 30.02 in 10.0 mi South 5.8 mph - N/A   Clear
2:53 AM 68.0 °F - 63.0 °F 84% 29.99 in 10.0 mi South 6.9 mph - N/A   Clear
3:53 AM 66.9 °F - 63.0 °F 87% 29.98 in 10.0 mi Calm Calm - N/A   Clear
4:53 AM 66.9 °F - 63.0 °F 87% 29.96 in 9.0 mi Variable 3.5 mph - N/A   Clear
5:53 AM 66.9 °F - 63.0 °F 87% 29.96 in 9.0 mi South 5.8 mph - N/A   Clear
6:53 AM 66.0 °F - 62.1 °F 87% 29.97 in 9.0 mi SSW 3.5 mph - N/A   Clear
7:53 AM 66.0 °F - 63.0 °F 90% 29.98 in 8.0 mi SSW 3.5 mph - N/A   Clear
8:53 AM 70.0 °F - 63.0 °F 78% 29.99 in 9.0 mi SSW 9.2 mph - N/A   Clear
9:53 AM 73.0 °F - 64.0 °F 73% 29.99 in 10.0 mi SSW 9.2 mph - N/A   Clear
10:53 AM 77.0 °F - 64.0 °F 64% 29.99 in 10.0 mi SW 11.5 mph - N/A   Clear
11:53 AM 80.1 °F 81.9 °F 64.9 °F 60% 29.99 in 10.0 mi South 9.2 mph - N/A   Clear
12:53 PM 82.0 °F 83.8 °F 64.9 °F 56% 29.97 in 10.0 mi Variable 6.9 mph - N/A   Clear
1:53 PM 84.9 °F 86.6 °F 64.9 °F 51% 29.96 in 10.0 mi South 13.8 mph 18.4 mph N/A   Clear
2:53 PM 87.1 °F 88.9 °F 64.9 °F 48% 29.94 in 10.0 mi South 10.4 mph 19.6 mph N/A   Clear
3:53 PM 88.0 °F 89.6 °F 64.9 °F 46% 29.91 in 10.0 mi South 13.8 mph 18.4 mph N/A   Clear
4:53 PM 89.1 °F 91.0 °F 64.9 °F 45% 29.90 in 10.0 mi South 13.8 mph - N/A   Clear
5:53 PM 88.0 °F 89.6 °F 64.9 °F 46% 29.89 in 10.0 mi South 11.5 mph 21.9 mph N/A   Clear
6:53 PM 87.1 °F 88.9 °F 64.9 °F 48% 29.89 in 10.0 mi South 11.5 mph - N/A   Clear
7:53 PM 82.9 °F 84.6 °F 64.9 °F 54% 29.89 in 10.0 mi South 3.5 mph - N/A   Clear
8:53 PM 79.0 °F - 64.0 °F 60% 29.91 in 10.0 mi South 5.8 mph - N/A   Clear
9:53 PM 75.9 °F - 64.0 °F 67% 29.93 in 10.0 mi South 5.8 mph - N/A   Clear
10:53 PM 73.0 °F - 64.0 °F 73% 29.93 in 10.0 mi South 4.6 mph - N/A   Clear
11:53 PM 72.0 °F - 64.0 °F 76% 29.92 in 10.0 mi SSW 4.6 mph - N/A   Clear